カタログに戻る

CRRES DEB

CANISTER

運用中HEO
NORAD 21637·DEBRIS·🇺🇸 United States

打ち上げ Jul 25, 1990 から Cape Canaveral Space Force Station

Loading…

次のパス (今後24時間)

TLE

最新Source: Space-Track

元期: Sep 13, 2026, 11:06 UTC

1 21637U 90065P   26256.46279472  .00000354  00000-0  61720-3 0  9992
2 21637  17.9755 103.9599 6899437 232.8679  42.4987  2.70416089325960

AllMySatでCRRES DEBをリアルタイム追跡

Download on the App Store